Location: Unspecified
(56.5167°N, 0.0000°E)
Time: 02:26:25
(UTC+02:00)

ISS - Visible Passes

Search period start: 24 September 2014 00:00
Search period end: 04 October 2014 00:00
Orbit: 413 x 416 km, 51.6° (Epoch: 23 September)

Date Brightness Start Highest point End Pass type
(mag) Time Alt. Az. Time Alt. Az. Time Alt. Az.
24 Sep -0.7 04:41:56 15° ESE 04:41:56 15° ESE 04:42:44 10° ESE visible
24 Sep -2.4 06:14:48 25° SW 06:16:03 34° S 06:19:06 10° ESE visible
25 Sep -2.1 05:27:54 31° SSE 05:27:54 31° SSE 05:30:18 10° ESE visible
25 Sep -1.8 07:00:47 10° WSW 07:03:25 23° SSW 07:06:07 10° SSE visible
26 Sep -0.4 04:41:02 13° ESE 04:41:02 13° ESE 04:41:26 10° ESE visible
26 Sep -2.1 06:13:55 25° SW 06:14:37 28° SSW 06:17:30 10° SE visible
27 Sep -1.5 05:27:06 23° SSE 05:27:06 23° SSE 05:28:46 10° SE visible
27 Sep -1.3 06:59:59 11° WSW 07:01:48 15° SSW 07:03:49 10° S visible
28 Sep -1.6 06:13:16 19° SSW 06:13:16 19° SSW 06:15:29 10° SSE visible
29 Sep -0.6 05:26:38 12° SSE 05:26:38 12° SSE 05:26:54 10° SE visible
